Welcome to the New NWS' Forecast!
Most changes are behind the scenes, but click here for differences you might notice.
Latest weather observations around

Little Rock, Adams Field (KLIT)

Using English Units (Switch to International System of Units)
Date/ Time (CDT) Wind (mph) Vis. (mi) Weather Sky Cond. Temp (°F) Rel. Humidity Wind Chill (°F) Heat Index (°F) Pressure Precip. (in)
Air Dwpt 6 hour Altimeter (inHg) Sea level (inHg) 1 hr 3 hr 6 hr
Max Min
Sep 25 03:53 Calm 10 Clear CLR 68 68     100%     29.96 29.95      
Sep 25 02:53 Calm 10 Clear CLR 70 69     97%     29.95 29.95      
Sep 25 01:53 NE 3 10 Clear CLR 70 69     97%     29.96 29.95      
Sep 25 00:53 Calm 10 Clear CLR 71 69     93%   72 29.95 29.95      
Sep 24 23:53 Calm 10 Clear CLR 72 68     87%   73 29.96 29.95      
Sep 24 22:53 Calm 10 Clear CLR 75 68     79%   76 29.96 29.96      
Sep 24 21:53 Calm 10 Mostly Clear FEW250 75 68     79%   76 29.95 29.95      
Sep 24 20:53 ESE 5 10 Mostly Clear FEW250 78 67     69%   79 29.95 29.94      
Sep 24 19:53 ESE 7 10 Mostly Clear FEW100 FEW250 79 66     65%   80 29.93 29.93      
Sep 24 18:53 ESE 9 10 Partly Cloudy FEW050 FEW100 SCT250 83 66     57%   85 29.92 29.92      
Sep 24 17:53 ESE 9 10 Partly Cloudy FEW050 FEW100 SCT250 88 63     43%   89 29.92 29.92      
Sep 24 16:53 SE 13 10 Partly Cloudy FEW050 SCT090 89 65     45%   91 29.92 29.91      
Sep 24 15:53 3 10 Partly Cloudy SCT050 SCT095 90 65     44%   92 29.91 29.91      
Sep 24 14:53 SE 11 10 Partly Cloudy SCT050 91 66     44%   94 29.94 29.93      
Sep 24 13:53 ESE 8 10 Partly Cloudy SCT048 90 68     49%   94 29.96 29.96      
Sep 24 12:53 E 7 10 Partly Cloudy SCT045 88 69     54%   92 29.98 29.98      
Sep 24 11:53 E 6 10 Mostly Clear FEW035 86 71     61%   92 30 29.99      
Sep 24 10:53 ENE 6 10 Clear CLR 84 72     67%   90 30 30      
Sep 24 09:53 Calm 10 Clear CLR 80 72     76%   84 30.01 30      
Sep 24 08:53 Calm 10 Clear CLR 76 72     88%   77 30 29.99      
Sep 24 07:53 NE 3 8 Clear CLR 72 71     97%   73 30 29.99      
Sep 24 06:53 Calm 7 Clear CLR 70 70     100%     29.98 29.98      
Sep 24 05:53 ENE 3 7 Clear CLR 70 70     100%     29.97 29.97      
Sep 24 04:53 ENE 5 10 Clear CLR 71 71     100%   73 29.96 29.96      
Sep 24 03:53 NE 3 10 Clear CLR 71 70     96%   72 29.95 29.95      
Sep 24 01:53 Calm 10 Clear CLR 73 71     94%   74 29.95 29.95      
Sep 24 00:53 Calm 10 Clear CLR 75 71     88%   76 29.95 29.95      
Sep 23 23:53 Calm 10 Clear CLR 74 72     94%   75 29.95 29.95      
Sep 23 22:53 ENE 3 10 Clear CLR 75 70     84%   76 29.96 29.95      
Sep 23 21:53 Calm 10 Clear CLR 77 70     79%   78 29.95 29.95      
Sep 23 20:53 ESE 5 10 Clear CLR 78 70     76%   79 29.94 29.93      
Sep 23 19:53 ENE 5 10 Partly Cloudy SCT015 81 69     67%   84 29.93 29.93      
Sep 23 18:53 E 8 10 Mostly Clear FEW020 FEW045 FEW250 85 68     57%   88 29.93 29.93      
Sep 23 17:53 E 8 10 Mostly Clear FEW050 FEW250 89 67     48%   92 29.93 29.92      
Sep 23 16:53 E 9 10 Partly Cloudy FEW055 SCT250 90 67     47%   93 29.93 29.92      
Sep 23 15:53 ESE 8 10 Partly Cloudy SCT055 91 67     45%   94 29.94 29.93      
Sep 23 14:53 ESE 9 10 Partly Cloudy SCT045 91 68     47%   95 29.96 29.96      
Sep 23 13:53 E 8 10 Partly Cloudy SCT050 91 68     47%   95 29.98 29.98      
Sep 23 12:53 NNE 7 10 Partly Cloudy SCT050 91 69     49%   96 30 30      
Sep 23 11:53 NE 6 10 Partly Cloudy SCT050 89 70     53%   94 30.02 30.02      
Sep 23 10:53 E 5 10 Mostly Clear FEW050 86 71     61%   92 30.03 30.03      
Sep 23 09:53 E 3 10 Clear CLR 83 72     70%   88 30.02 30.02      
Sep 23 08:53 ENE 3 10 Clear   77 73     88%   79 30.01 30.01      
Sep 23 07:53 N 3 7 Clear CLR 73 72     96%   75 30 30      
Sep 23 06:53 Calm 7 Clear CLR 71 71     100%   73 30 30      
Sep 23 05:53 ENE 3 7 Clear CLR 71 71     100%   73 29.98 29.98      
Sep 23 04:53 ENE 3 7 Clear CLR 71 71     100%   73 29.97 29.97      
Sep 23 03:53 Calm 10 Clear CLR 72 72     100%   74 29.97 29.96      
Sep 23 02:53 Calm 10 Clear CLR 73 71     94%   74 29.97 29.97      
Sep 23 01:53 Calm 10 Clear CLR 73 72     96%   75 29.97 29.97      
Sep 23 00:53 Calm 10 Clear CLR 74 72     94%   75 29.97 29.97      
Sep 22 23:53 Calm 10 Clear CLR 75 72     90%   76 29.98 29.98      
Sep 22 22:53 Calm 10 Clear CLR 76 72     88%   77 29.98 29.98      
Sep 22 21:53 Calm 10 Clear CLR 77 70     79%   78 29.97 29.97      
Sep 22 20:53 Calm 10 Clear CLR 78 72     82%   79 29.96 29.96      
Sep 22 19:53 SE 3 10 Clear CLR 80 71     74%   84 29.95 29.95      
Sep 22 18:53 SSE 3 10 Mostly Clear FEW045 88 67     50%   91 29.94 29.94      
Sep 22 17:53 S 6 10 Mostly Clear FEW050 89 67     48%   92 29.94 29.94      
Sep 22 16:53 3 10 Mostly Clear FEW055 FEW250 91 66     44%   94 29.95 29.95      
Sep 22 15:53 5 10 Partly Cloudy FEW055 SCT120 92 65     41%   94 29.96 29.96      
Sep 22 14:53 SE 7 10 Partly Cloudy SCT050 92 63     38%   93 29.98 29.98      
Sep 22 13:53 SSE 9 10 Mostly Cloudy BKN050 92 64     40%   94 30 30      
Sep 22 12:53 SE 7 10 Mostly Cloudy BKN040 90 70     52%   95 30.02 30.02      
Sep 22 11:53 S 5 10 Partly Cloudy SCT035 89 72     57%   96 30.04 30.03      
Sep 22 10:53 Calm 10 Mostly Clear FEW030 85 74     70%   92 30.05 30.05      
Sep 22 09:53 Calm 10 Mostly Clear FEW050 83 74     74%   89 30.05 30.05      
Sep 22 08:53 Calm 7 Mostly Clear FEW050 FEW250 78 75     90%   80 30.04 30.04      
Sep 22 07:53 Calm 5 Fog/Mist CLR 73 73     100%   75 30.03 30.03      
Sep 22 06:53 Calm 7 Clear   71 71     100%   73 30.03 30.02      
Sep 22 05:53 Calm 6 Fog/Mist CLR 72 72     100%   74 30.01 30.01      
Sep 22 04:53 Calm 7 Clear CLR 72 72     100%   74 30 30      
Jun 12 06:38 SSE 5 1 Light Drizzle and Fog/Mist SKC OVC005 71 71     100%   73 30.04   0    
Jun 12 03:28 S 6 10 Mostly Cloudy BKN013 72 70     93%   73 30        
Jun 11 18:53 S 10 10 Mostly Clear FEW050 86 67     53%   89 29.96 29.95      
Jun 11 15:53 S 10 10 Partly Cloudy SCT050 87 66     50%   89 29.99 29.99      
Jun 11 13:53 S 11 10 Partly Cloudy SCT050 87 64     46%   88 30.03 30.02      
Jun 11 08:53 S 6 10 Partly Cloudy SCT065 76 69     79%   77 30.04 30.03      
Jun 09 18:53 S 6 10 Mostly Cloudy FEW030 BKN250 78 57     48%   78 29.91 29.91      
Jun 09 14:53   10 Mostly Cloudy FEW060 BKN250 82 53     37%   81 29.95 29.95      
Jun 09 04:53 WSW 3 10 Clear CLR 59 59     100%     29.93 29.93      
Jun 06 12:53 ENE 13 10 Partly Cloudy SCT030 86 69     57%   90 29.82 29.82      
Jun 06 11:53 NE 11 10 Partly Cloudy SCT026 85 72     65%   91 29.83 29.82      
Jun 06 09:53 NE 10 10 Partly Cloudy FEW015 SCT250 80 73     79%   84 29.84 29.84      
Jun 05 13:53 E 5 7 Mostly Cloudy FEW015 BKN025 BKN250 77 71     82%   78 29.77 29.76 0